[[[{"header":{"parameterUnit":"kt","parameterCategory":2,"dx":1,"dy":1,"la1":30.253999710083008,"la2":30.299108505249023,"lo1":-89.0895004272461,"lo2":-89.04439544677734,"nx":28,"ny":28,"refTime":"2022-09-20T15:00:00:Z","depth":"0","parameterNumber":2,"parameterNumberName":"U-component_of_CURRENTS"},"data":[-0.1718,-0.1125,-0.1067,-0.0393,-0.0253,0.0137,0.0314,0.0537,0.0784,0.1405,0.1822,0.205,0.2559,0.355,0.4035,0.3982,0.348,0.3667,0.3165,0.2965,0.279,0.2622,0.2721,0.4269,0.4269,0.3367,0.3362,0.3359,-0.232,-0.2092,-0.1729,-0.1346,-0.1025,-0.111,-0.0709,-0.0463,0.0029,0.0439,0.0856,0.1637,0.2327,0.2524,0.3007,0.3123,0.2586,0.305,0.2413,0.2205,0.1982,0.2112,0.3556,0.3555,0.3555,0.3555,0.3555,0.3554,-0.3266,-0.296,-0.2705,-0.2331,-0.2066,-0.1707,-0.1394,-0.111,-0.0683,-0.0261,-0.0119,0.0378,0.0911,0.126,0.1285,0.1612,0.0873,0.1496,0.1281,0.0821,0.0866,0.0664,0.1699,0.1693,0.1687,0.1682,0.1677,0,-0.3886,-0.3897,-0.363,-0.3256,-0.2938,-0.2597,-0.2267,-0.2018,-0.1917,-0.1629,-0.1126,-0.0847,-0.0391,-0.0007,0.0171,0.0131,-0.0655,-0.0376,-0.0325,-0.0043,-0.0266,-0.0252,-0.1027,-0.031,-0.0329,-0.0342,-0.0352,-0.0359,-0.4569,-0.4416,-0.4211,-0.396,-0.3808,-0.348,-0.3207,-0.3205,-0.2935,-0.2614,-0.2352,-0.205,-0.172,-0.1357,-0.1401,-0.1314,-0.1676,-0.0825,-0.1185,-0.0924,-0.0973,-0.1385,-0.1472,-0.0557,-0.0532,-0.0511,-0.0495,0,-0.4809,-0.4847,-0.458,-0.4409,-0.4328,-0.407,-0.3765,-0.3528,-0.3538,-0.3151,-0.3109,-0.3163,-0.2882,-0.3084,-0.2994,-0.3059,-0.2654,-0.2621,-0.2115,-0.1893,-0.1163,-0.1306,-0.0966,-0.098,-0.1841,-0.1821,-0.1805,0,-0.5107,-0.4964,-0.4864,-0.4714,-0.4445,-0.4463,-0.418,-0.4192,-0.4084,-0.378,-0.4125,-0.3842,-0.42,-0.4002,-0.411,-0.3607,-0.3877,-0.3458,-0.3288,-0.2974,-0.2884,-0.261,-0.2726,-0.4138,-0.4142,-0.4146,-0.4149,0,-0.5162,-0.511,-0.4967,-0.4917,-0.4753,-0.4691,-0.4633,-0.4592,-0.442,-0.4467,-0.4299,-0.4518,-0.4318,-0.4446,-0.4263,-0.4459,-0.4001,-0.4219,-0.3522,-0.3468,-0.2946,-0.2842,-0.2462,-0.4155,-0.4156,-0.4157,-0.4159,0,-0.5265,-0.5157,-0.5069,-0.4884,-0.4855,-0.4824,-0.468,-0.4664,-0.4676,-0.4642,-0.4746,-0.472,-0.4756,-0.4813,-0.4708,-0.4786,-0.4647,-0.4525,-0.4502,-0.382,-0.3643,-0.279,-0.2528,-0.2363,-0.4114,-0.4117,-0.4119,0,-0.5176,-0.5126,-0.5134,-0.5055,-0.4969,-0.4963,-0.4944,-0.493,-0.4897,-0.4827,-0.4911,-0.4785,-0.4937,-0.482,-0.4912,-0.4677,-0.4651,-0.4807,-0.4353,-0.4336,-0.3733,-0.3629,-0.3168,-0.2624,-0.4152,-0.4149,-0.4146,0,-0.5102,-0.5045,-0.5047,-0.4952,-0.4967,-0.4898,-0.4967,-0.4943,-0.4865,-0.4939,-0.4863,-0.4907,-0.4878,-0.4836,-0.4774,-0.4767,-0.4678,-0.4657,-0.465,-0.4421,-0.4408,-0.375,-0.3662,-0.4687,-0.4688,-0.4688,-0.4173,0,-0.4946,-0.4944,-0.4963,-0.4952,-0.493,-0.4937,-0.4888,-0.489,-0.4841,-0.4807,-0.479,-0.473,-0.4667,-0.4664,-0.46,-0.4621,-0.4473,-0.4479,-0.4395,-0.4498,-0.4244,-0.4224,-0.4407,-0.4403,-0.44,-0.4398,0,0,-0.4841,-0.4859,-0.4823,-0.4836,-0.4803,-0.4763,-0.4767,-0.4752,-0.4687,-0.466,-0.4621,-0.4534,-0.446,-0.445,-0.4483,-0.4441,-0.4314,-0.4405,-0.4457,-0.4465,-0.4471,-0.4238,-0.4222,-0.4393,-0.4392,-0.4391,-0.439,0,-0.4775,-0.477,-0.4807,-0.4786,-0.476,-0.4722,-0.4731,-0.467,-0.4623,-0.4611,-0.4502,-0.4485,-0.4386,-0.4338,-0.4297,-0.4399,-0.421,-0.4365,-0.4491,-0.4435,-0.4446,-0.4455,-0.4229,-0.4217,-0.4383,-0.4383,-0.4383,0,-0.468,-0.4659,-0.4676,-0.4668,-0.4637,-0.4643,-0.4552,-0.4554,-0.4544,-0.4408,-0.4371,-0.4306,-0.4209,-0.4198,-0.4183,-0.4144,-0.4111,-0.4157,-0.4171,-0.418,-0.4116,-0.413,-0.4143,-0.397,-0.397,-0.3969,0,0,-0.4628,-0.4649,-0.4606,-0.465,-0.464,-0.4571,-0.456,-0.4512,-0.4451,-0.4421,-0.4329,-0.4248,-0.4192,-0.416,-0.4095,-0.4104,-0.3991,-0.4112,-0.4131,-0.4147,-0.4166,-0.4107,-0.4121,-0.3966,-0.3965,-0.3965,0,0,-0.459,-0.4551,-0.4529,-0.4575,-0.4552,-0.4476,-0.4485,-0.4433,-0.4377,-0.436,-0.4225,-0.4195,-0.4169,-0.4105,-0.4077,-0.4064,-0.3979,-0.3983,-0.4112,-0.4134,-0.4153,-0.4187,-0.3935,0,0,0,0,0,-0.4509,-0.4563,-0.4546,-0.4547,-0.4515,-0.4503,-0.4493,-0.441,-0.4356,-0.4367,-0.4281,-0.4183,-0.4066,-0.4038,-0.4018,-0.4046,-0.3923,-0.393,-0.3938,-0.4102,-0.4127,-0.4149,0,0,0,0,0,0,-0.4509,-0.4511,-0.4544,-0.448,-0.4471,-0.45,-0.4395,-0.4373,-0.4352,-0.4336,-0.4206,-0.4179,-0.4083,-0.404,-0.4023,-0.4052,-0.394,-0.3926,-0.3932,-0.3938,-0.4111,-0.4132,-0.4149,0,0,0,0,0,-0.4508,-0.451,-0.4487,-0.4476,-0.4469,-0.4378,-0.4392,-0.4373,-0.4346,-0.4221,-0.4192,-0.4284,-0.4088,-0.4065,-0.4029,-0.4063,-0.395,-0.3945,-0.393,-0.3935,-0.394,-0.4121,0,0,0,0,0,0,-0.4508,-0.4477,-0.4483,-0.4476,-0.4447,-0.4373,-0.4361,-0.4373,-0.4227,-0.4204,-0.4292,-0.4281,-0.4092,-0.4073,-0.4056,-0.4074,-0.3959,-0.3953,-0.395,-0.3934,-0.3938,-0.3941,0,0,0,0,0,0,-0.4476,-0.4473,-0.4479,-0.4447,-0.4436,-0.4369,-0.4358,-0.4312,-0.4224,-0.4304,-0.4292,-0.4289,-0.4097,-0.4079,-0.4066,-0.3998,-0.3965,-0.396,-0.3956,-0.3954,-0.3937,-0.394,0,0,0,0,0,0,-0.4472,-0.447,-0.4448,-0.4439,-0.4429,-0.4346,-0.4321,-0.4278,-0.4248,-0.4309,-0.4239,-0.4234,-0.4105,-0.409,-0.4073,-0.4012,-0.4002,-0.3965,-0.3961,-0.3959,-0.3957,0,0,0,0,0,0,0,-0.447,-0.4516,-0.4528,-0.4433,-0.4423,-0.4418,-0.4416,-0.4413,-0.4247,-0.4243,-0.424,-0.4236,-0.3997,-0.3991,-0.3985,-0.4024,0,0,-0.3966,-0.3963,0,0,0,0,0,0,0,0,-0.4514,-0.4515,-0.4528,-0.4527,-0.4526,-0.4418,-0.4416,-0.4414,-0.4247,-0.4244,-0.424,-0.4237,-0.3995,-0.399,-0.3985,0,0,0,0,0,0,0,0,0,0,0,0,0,0,0,-0.4528,-0.4527,0,-0.4418,-0.4416,-0.4414,-0.4246,-0.4244,-0.4241,-0.4239,-0.3994,-0.399,-0.3986,0,0,0,0,0,0,0,0,0,0,0,0,0,0,0,0,0,0,0,0,0,0,0,0,0,0,0,0,0,0,0,0,0,0,0,0,0,0,0,0,0,0,0,0,0,0,0,0,0,0,0,0,0,0,0,0,0,0,0,0,0,0,0,0,0,0,0,0,0]}],[{"header":{"parameterUnit":"kt","parameterCategory":2,"dx":1,"dy":1,"la1":30.253999710083008,"la2":30.299108505249023,"lo1":-89.0895004272461,"lo2":-89.04439544677734,"nx":28,"ny":28,"refTime":"2022-09-20T15:00:00:Z","depth":"0","parameterNumber":3,"parameterNumberName":"V-component_of_CURRENTS"},"data":[0.0725,0.1121,0.1211,0.1631,0.1764,0.1911,0.1951,0.1955,0.1961,0.206,0.2126,0.2135,0.1936,0.0701,-0.0128,-0.0404,-0.0928,-0.1138,-0.1324,-0.0896,-0.0893,-0.0891,-0.0924,-0.0926,-0.0927,-0.1908,-0.1916,-0.1922,0.0432,0.0602,0.0928,0.1211,0.1411,0.1373,0.1523,0.1574,0.169,0.1714,0.173,0.1672,0.1176,0.0649,0.0089,-0.0284,-0.0647,-0.0517,-0.0911,-0.097,-0.0406,-0.0412,-0.0306,-0.0306,-0.0306,-0.0306,-0.0306,-0.0305,-0.0124,0.012,0.0363,0.0691,0.0861,0.1008,0.1186,0.1232,0.1392,0.1425,0.1344,0.1306,0.0909,0.0429,0.0141,-0.0275,-0.044,-0.0359,-0.0489,-0.077,-0.0871,-0.0328,-0.0142,-0.0143,-0.0143,-0.0144,-0.0144,0,-0.0537,-0.0485,-0.023,0.0107,0.029,0.0532,0.0709,0.0813,0.0793,0.0868,0.0913,0.0858,0.0575,0.0317,0.0002,-0.0116,-0.0607,-0.0367,-0.053,-0.064,-0.0987,-0.1055,-0.0534,-0.0376,-0.0378,-0.038,-0.0381,-0.0382,-0.1028,-0.0849,-0.0561,-0.0392,-0.0282,-0.0005,0.0151,0.0158,0.0266,0.0307,0.0388,0.0279,0.0219,0.0042,-0.0232,-0.0417,-0.0628,-0.0418,-0.0483,-0.0666,-0.078,-0.1073,-0.115,-0.0405,-0.0402,-0.04,-0.0398,0,-0.1239,-0.1219,-0.0905,-0.071,-0.0643,-0.0401,-0.0207,-0.0063,-0.0098,0.0071,0.0059,-0.0139,-0.0225,-0.0458,-0.0523,-0.0632,-0.0759,-0.0633,-0.063,-0.0596,-0.0685,-0.0809,-0.1026,-0.1109,-0.0555,-0.0553,-0.0551,0,-0.1513,-0.1326,-0.1183,-0.1036,-0.0757,-0.0754,-0.0518,-0.0495,-0.0463,-0.0307,-0.0547,-0.0471,-0.0717,-0.0744,-0.0846,-0.0821,-0.0808,-0.0823,-0.0789,-0.0761,-0.0756,-0.0816,-0.0933,-0.0833,-0.0834,-0.0835,-0.0835,0,-0.1655,-0.1493,-0.1287,-0.1223,-0.1049,-0.0985,-0.091,-0.0877,-0.0767,-0.0806,-0.0744,-0.0835,-0.0797,-0.0849,-0.0924,-0.0966,-0.0875,-0.0905,-0.0836,-0.0834,-0.0719,-0.0709,-0.0789,-0.0836,-0.0836,-0.0836,-0.0836,0,-0.1808,-0.1662,-0.1481,-0.1246,-0.1204,-0.1173,-0.1016,-0.0988,-0.0997,-0.0995,-0.1014,-0.1045,-0.1059,-0.111,-0.1081,-0.1112,-0.1086,-0.107,-0.1065,-0.0951,-0.0936,-0.0813,-0.0791,-0.0935,-0.1025,-0.1026,-0.1027,0,-0.1833,-0.1673,-0.1674,-0.1518,-0.1389,-0.1401,-0.1375,-0.1347,-0.1337,-0.127,-0.131,-0.1222,-0.1316,-0.124,-0.1245,-0.1183,-0.1154,-0.1212,-0.1025,-0.102,-0.095,-0.095,-0.0898,-0.0821,-0.1046,-0.1044,-0.1042,0,-0.1848,-0.1726,-0.1711,-0.1585,-0.1577,-0.1505,-0.1546,-0.1481,-0.14,-0.1455,-0.1346,-0.1355,-0.1324,-0.1277,-0.1248,-0.1212,-0.1188,-0.1185,-0.1178,-0.1146,-0.1045,-0.0985,-0.0967,-0.1135,-0.1132,-0.113,-0.1057,0,-0.1747,-0.1695,-0.1696,-0.1641,-0.1613,-0.1585,-0.1565,-0.1563,-0.1537,-0.1496,-0.1443,-0.141,-0.13,-0.1317,-0.1286,-0.1226,-0.1211,-0.1173,-0.1094,-0.1128,-0.1099,-0.1088,-0.119,-0.1188,-0.1186,-0.1185,0,0,-0.1719,-0.168,-0.167,-0.1641,-0.1581,-0.1582,-0.1536,-0.1545,-0.1487,-0.1439,-0.145,-0.1327,-0.1285,-0.12,-0.1224,-0.1215,-0.117,-0.1157,-0.1134,-0.1129,-0.1124,-0.1096,-0.1087,-0.1182,-0.1181,-0.1181,-0.118,0,-0.1675,-0.1668,-0.1666,-0.1635,-0.159,-0.1553,-0.156,-0.15,-0.147,-0.1449,-0.1371,-0.1334,-0.1263,-0.1191,-0.1146,-0.1198,-0.1102,-0.1193,-0.1201,-0.1124,-0.1121,-0.1118,-0.1091,-0.1084,-0.1177,-0.1177,-0.1177,0,-0.1622,-0.1586,-0.1591,-0.1558,-0.1522,-0.1497,-0.144,-0.143,-0.1407,-0.1313,-0.127,-0.1229,-0.1147,-0.1119,-0.1104,-0.1065,-0.1027,-0.1052,-0.106,-0.103,-0.0945,-0.0944,-0.0943,-0.095,-0.095,-0.0949,0,0,-0.1582,-0.1583,-0.1527,-0.1545,-0.1528,-0.1459,-0.1437,-0.1396,-0.1344,-0.1319,-0.1248,-0.1181,-0.1135,-0.1097,-0.1057,-0.1037,-0.0976,-0.1027,-0.1038,-0.1047,-0.1023,-0.0941,-0.0941,-0.0947,-0.0947,-0.0947,0,0,-0.1559,-0.1502,-0.1477,-0.1488,-0.1457,-0.1378,-0.137,-0.1327,-0.1281,-0.127,-0.1165,-0.1143,-0.1125,-0.107,-0.1057,-0.1013,-0.0967,-0.0968,-0.1039,-0.1051,-0.1061,-0.104,-0.0949,0,0,0,0,0,-0.1489,-0.1515,-0.1494,-0.1487,-0.1426,-0.1402,-0.1388,-0.1305,-0.1265,-0.1272,-0.1205,-0.1133,-0.1038,-0.1024,-0.1009,-0.1007,-0.0923,-0.0927,-0.0931,-0.102,-0.1033,-0.1045,0,0,0,0,0,0,-0.1486,-0.1481,-0.1492,-0.1422,-0.1406,-0.14,-0.1313,-0.1291,-0.1262,-0.125,-0.115,-0.113,-0.1055,-0.1026,-0.1014,-0.1013,-0.0952,-0.0925,-0.0928,-0.0932,-0.1024,-0.1036,-0.1045,0,0,0,0,0,-0.1483,-0.1479,-0.1411,-0.1419,-0.1406,-0.1304,-0.1311,-0.1292,-0.1269,-0.116,-0.1139,-0.1208,-0.1058,-0.1041,-0.1018,-0.102,-0.096,-0.0956,-0.0927,-0.093,-0.0933,-0.103,0,0,0,0,0,0,-0.1481,-0.1454,-0.1405,-0.1396,-0.1401,-0.1302,-0.1288,-0.1294,-0.1178,-0.1158,-0.1212,-0.1204,-0.1061,-0.1047,-0.1035,-0.1027,-0.0966,-0.0962,-0.096,-0.0929,-0.0932,-0.0934,0,0,0,0,0,0,-0.1455,-0.1448,-0.14,-0.1382,-0.137,-0.13,-0.1288,-0.1254,-0.1178,-0.1237,-0.1226,-0.121,-0.1073,-0.1052,-0.1042,-0.0992,-0.0971,-0.0967,-0.0964,-0.0963,-0.0931,-0.0933,0,0,0,0,0,0,-0.145,-0.1443,-0.1384,-0.1375,-0.1364,-0.1256,-0.1267,-0.1206,-0.1172,-0.1243,-0.1165,-0.1162,-0.1079,-0.1068,-0.1047,-0.1002,-0.0994,-0.0971,-0.0968,-0.0966,-0.0965,0,0,0,0,0,0,0,-0.1445,-0.152,-0.1459,-0.1369,-0.1359,-0.1311,-0.1309,-0.1307,-0.1171,-0.1169,-0.1166,-0.1164,-0.0994,-0.099,-0.0985,-0.101,0,0,-0.0971,-0.0969,0,0,0,0,0,0,0,0,-0.1519,-0.1519,-0.1458,-0.1456,-0.1454,-0.1311,-0.1309,-0.1307,-0.1171,-0.1169,-0.1167,-0.1165,-0.0993,-0.0989,-0.0986,0,0,0,0,0,0,0,0,0,0,0,0,0,0,0,-0.1458,-0.1456,0,-0.1311,-0.1309,-0.1308,-0.1171,-0.1169,-0.1167,-0.1165,-0.0992,-0.0989,-0.0986,0,0,0,0,0,0,0,0,0,0,0,0,0,0,0,0,0,0,0,0,0,0,0,0,0,0,0,0,0,0,0,0,0,0,0,0,0,0,0,0,0,0,0,0,0,0,0,0,0,0,0,0,0,0,0,0,0,0,0,0,0,0,0,0,0,0,0,0,0]}]],[[{"header":{"parameterUnit":"kt","parameterCategory":2,"dx":1,"dy":1,"la1":30.253999710083008,"la2":30.299108505249023,"lo1":-89.0895004272461,"lo2":-89.04439544677734,"nx":28,"ny":28,"refTime":"2022-09-20T15:00:00:Z","depth":"2","parameterNumber":2,"parameterNumberName":"U-component_of_CURRENTS"},"data":[-0.1238,-0.1105,-0.1075,-0.0781,-0.067,-0.0452,-0.0354,-0.0237,-0.008,0.0136,0.0313,0.0435,0.0487,0.0498,0.0433,0.0476,0.0238,0.0394,0.064,0.0043,0.0016,-0.0158,-0.0133,0,0,0,0,0,-0.1401,-0.1346,-0.1205,-0.1038,-0.0883,-0.0897,-0.0754,-0.0649,-0.0474,-0.0241,-0.0019,0.0123,0.0305,0.0467,0.0615,0.0664,0.036,0.0563,0.0082,0.0051,0.0022,0.0058,0.0334,0.0334,0.0335,0.0336,0,0,-0.1619,-0.157,-0.1361,-0.1254,-0.1162,-0.1044,-0.0952,-0.0892,-0.0761,-0.0493,-0.0388,-0.0065,0.0023,0.0511,0.0524,0.0548,0.0567,0.0329,0.0295,0.0262,0.0332,0.0374,0.067,0.0672,0.0674,0.0675,0.0677,0,-0.1747,-0.1686,-0.1565,-0.1405,-0.1348,-0.1265,-0.1221,-0.1154,-0.1098,-0.0942,-0.0654,-0.0447,-0.0013,0.0183,0.0401,0.0354,-0.0045,0.007,-0.0033,-0.046,-0.0453,-0.0479,-0.0504,-0.0318,-0.0321,-0.0324,-0.0326,-0.0327,-0.181,-0.1749,-0.1592,-0.1525,-0.1488,-0.1491,-0.143,-0.144,-0.1358,-0.1107,-0.0984,-0.0669,-0.0402,-0.0126,-0.001,0.0082,-0.0088,-0.0045,-0.0101,-0.0182,-0.0197,-0.0226,-0.0251,-0.0363,-0.0359,-0.0355,-0.0352,0,-0.1759,-0.1728,-0.1674,-0.1569,-0.155,-0.1573,-0.151,-0.1458,-0.1434,-0.124,-0.1207,-0.0998,-0.0739,-0.0695,-0.0639,-0.0591,-0.0503,-0.0425,-0.0636,-0.0628,-0.0315,-0.0325,-0.0034,-0.002,-0.0008,0.0002,0.0011,0,-0.1672,-0.169,-0.1624,-0.1573,-0.1551,-0.1583,-0.154,-0.1517,-0.1443,-0.1308,-0.1276,-0.1103,-0.1091,-0.0966,-0.1001,-0.0746,-0.091,-0.0644,-0.0625,-0.0839,-0.0827,-0.1066,-0.1075,-0.0995,-0.0995,-0.0996,-0.0996,0,-0.1653,-0.1622,-0.159,-0.1579,-0.1521,-0.152,-0.1517,-0.1443,-0.1382,-0.1337,-0.1252,-0.119,-0.1113,-0.1116,-0.1037,-0.1096,-0.095,-0.1034,-0.0731,-0.0711,-0.0843,-0.083,-0.0997,-0.0997,-0.0997,-0.0997,-0.0997,0,-0.1637,-0.1584,-0.1542,-0.155,-0.155,-0.1519,-0.1473,-0.1433,-0.1344,-0.1326,-0.126,-0.1226,-0.1138,-0.1194,-0.1097,-0.1139,-0.1153,-0.1151,-0.1149,-0.0796,-0.0832,-0.096,-0.0839,-0.1165,-0.1166,-0.1168,-0.1169,0,-0.165,-0.1609,-0.1586,-0.1548,-0.1544,-0.1528,-0.1472,-0.1424,-0.1382,-0.1339,-0.1299,-0.1262,-0.1265,-0.1278,-0.1239,-0.1213,-0.1196,-0.124,-0.1216,-0.1214,-0.0911,-0.0756,-0.0948,-0.087,-0.1185,-0.1184,-0.1182,0,-0.1697,-0.1666,-0.1665,-0.1671,-0.1629,-0.1627,-0.1541,-0.1492,-0.1469,-0.1428,-0.1389,-0.1301,-0.1327,-0.1286,-0.1291,-0.1267,-0.1225,-0.1308,-0.1307,-0.1296,-0.1185,-0.0828,-0.0783,-0.1266,-0.1264,-0.1262,-0.1196,0,-0.1725,-0.1714,-0.1707,-0.1675,-0.1663,-0.1649,-0.1626,-0.1601,-0.16,-0.1578,-0.1519,-0.1481,-0.1425,-0.1413,-0.14,-0.1331,-0.1355,-0.1377,-0.1397,-0.1353,-0.1331,-0.1321,-0.1446,-0.1447,-0.1447,-0.1447,0,0,-0.18,-0.1759,-0.1782,-0.1764,-0.1761,-0.1776,-0.1747,-0.172,-0.1693,-0.1678,-0.1701,-0.1594,-0.1554,-0.1461,-0.1444,-0.143,-0.1433,-0.1436,-0.1377,-0.1369,-0.1362,-0.1339,-0.1329,-0.1447,-0.1447,-0.1447,-0.1447,0,-0.1803,-0.1813,-0.1791,-0.1792,-0.18,-0.1787,-0.1791,-0.1791,-0.1787,-0.1727,-0.172,-0.168,-0.1597,-0.1549,-0.1512,-0.1444,-0.1448,-0.1444,-0.1405,-0.138,-0.1372,-0.1365,-0.1342,-0.1332,-0.1448,-0.1448,-0.1448,0,-0.1844,-0.1846,-0.1837,-0.183,-0.1835,-0.1805,-0.1855,-0.1854,-0.1815,-0.182,-0.1758,-0.1738,-0.1678,-0.1605,-0.1573,-0.1585,-0.1472,-0.1503,-0.1501,-0.147,-0.1443,-0.1434,-0.1426,-0.1531,-0.1532,-0.1532,0,0,-0.186,-0.1848,-0.1854,-0.1834,-0.1841,-0.185,-0.1852,-0.1859,-0.1842,-0.1836,-0.1805,-0.176,-0.17,-0.1672,-0.1613,-0.1546,-0.1528,-0.1515,-0.1511,-0.1508,-0.1476,-0.1448,-0.1439,-0.1534,-0.1534,-0.1534,0,0,-0.1867,-0.1871,-0.1875,-0.1856,-0.1855,-0.1855,-0.1856,-0.1869,-0.1843,-0.1846,-0.1817,-0.1803,-0.1736,-0.1709,-0.1737,-0.162,-0.1635,-0.1628,-0.1642,-0.1636,-0.1632,-0.1609,-0.173,0,0,0,0,0,-0.1887,-0.1869,-0.1872,-0.1871,-0.1857,-0.1847,-0.1846,-0.1864,-0.1889,-0.1882,-0.1853,-0.1845,-0.1715,-0.1738,-0.1721,-0.1688,-0.1556,-0.1552,-0.1548,-0.1549,-0.1544,-0.154,0,0,0,0,0,0,-0.1886,-0.1882,-0.1873,-0.1872,-0.187,-0.1847,-0.1873,-0.1875,-0.189,-0.1895,-0.1851,-0.1842,-0.1812,-0.1745,-0.173,-0.1699,-0.1735,-0.1554,-0.1551,-0.1548,-0.1548,-0.1543,-0.1539,0,0,0,0,0,-0.1886,-0.1883,-0.1856,-0.1872,-0.187,-0.1889,-0.1874,-0.1877,-0.1887,-0.1844,-0.1839,-0.1906,-0.1811,-0.1797,-0.1736,-0.1706,-0.1745,-0.174,-0.1552,-0.1549,-0.1547,-0.1545,0,0,0,0,0,0,-0.1886,-0.1876,-0.1856,-0.1856,-0.189,-0.1891,-0.1891,-0.1877,-0.1834,-0.1832,-0.1895,-0.1898,-0.181,-0.18,-0.1789,-0.1711,-0.1754,-0.1748,-0.1745,-0.155,-0.1548,-0.1546,0,0,0,0,0,0,-0.1878,-0.1875,-0.1856,-0.1877,-0.188,-0.1893,-0.1893,-0.1828,-0.1831,-0.1884,-0.1888,-0.1896,-0.1812,-0.1801,-0.1792,-0.1692,-0.176,-0.1755,-0.1751,-0.1749,-0.1548,-0.1547,0,0,0,0,0,0,-0.1878,-0.1875,-0.1877,-0.1879,-0.1882,-0.1885,-0.1833,-0.1806,-0.1893,-0.1883,-0.1897,-0.19,-0.1812,-0.1804,-0.1795,-0.1699,-0.1694,-0.176,-0.1756,-0.1754,-0.1752,0,0,0,0,0,0,0,-0.1877,-0.1886,-0.186,-0.188,-0.1883,-0.1863,-0.1863,-0.1862,-0.1893,-0.1895,-0.1897,-0.1899,-0.1791,-0.1785,-0.1779,-0.1704,0,0,-0.1761,-0.1758,0,0,0,0,0,0,0,0,-0.1888,-0.1887,-0.186,-0.186,-0.1861,-0.1863,-0.1863,-0.1862,-0.1893,-0.1895,-0.1896,-0.1898,-0.179,-0.1785,-0.178,0,0,0,0,0,0,0,0,0,0,0,0,0,0,0,-0.186,-0.186,0,-0.1863,-0.1863,-0.1863,-0.1894,-0.1895,-0.1896,-0.1897,-0.1788,-0.1784,-0.178,0,0,0,0,0,0,0,0,0,0,0,0,0,0,0,0,0,0,0,0,0,0,0,0,0,0,0,0,0,0,0,0,0,0,0,0,0,0,0,0,0,0,0,0,0,0,0,0,0,0,0,0,0,0,0,0,0,0,0,0,0,0,0,0,0,0,0,0,0]}],[{"header":{"parameterUnit":"kt","parameterCategory":2,"dx":1,"dy":1,"la1":30.253999710083008,"la2":30.299108505249023,"lo1":-89.0895004272461,"lo2":-89.04439544677734,"nx":28,"ny":28,"refTime":"2022-09-20T15:00:00:Z","depth":"2","parameterNumber":3,"parameterNumberName":"V-component_of_CURRENTS"},"data":[-0.0478,-0.0488,-0.052,-0.0576,-0.0565,-0.0538,-0.0496,-0.0431,-0.0339,-0.0253,-0.0148,-0.0208,-0.016,-0.0161,-0.0212,-0.0146,0.0022,-0.018,-0.0066,0.016,0.0201,0.0294,0.0296,0,0,0,0,0,-0.0487,-0.0453,-0.0489,-0.0465,-0.0518,-0.0442,-0.0434,-0.0366,-0.0277,-0.0189,-0.0103,-0.014,-0.0197,-0.0062,-0.0009,-0.0043,0.005,-0.0053,0.0112,0.015,0.0187,0.0172,-0.0208,-0.0207,-0.0206,-0.0205,0,0,-0.0437,-0.044,-0.0358,-0.0341,-0.033,-0.0365,-0.0327,-0.024,-0.017,0.0053,0.0025,0.0124,0.0127,0.0121,0.0116,0.0189,0.0259,0.0279,0.0303,0.0332,0.031,0.0244,-0.0027,-0.0025,-0.0024,-0.0022,-0.0021,0,-0.0352,-0.0293,-0.0214,-0.0197,-0.0147,-0.0114,-0.0007,-0.0003,0.0263,0.034,0.0403,0.0427,0.0426,0.0388,0.0385,0.0372,0.0629,0.0503,0.0826,0.0759,0.0701,0.0725,0.0757,0.0525,0.053,0.0533,0.0536,0.0538,-0.0271,-0.0201,-0.0035,-0.0,0.0121,0.0237,0.027,0.0514,0.0549,0.0774,0.0725,0.0807,0.0771,0.0715,0.0769,0.0764,0.0918,0.0621,0.0754,0.1037,0.1055,0.1076,0.1094,0.0591,0.0584,0.0578,0.0574,0,-0.0218,-0.0024,0.0101,0.0339,0.0391,0.045,0.0643,0.0665,0.0876,0.0899,0.0941,0.108,0.1084,0.1156,0.1192,0.1188,0.1162,0.1109,0.0964,0.0943,0.1125,0.1135,0.093,0.0923,0.0916,0.0911,0.0906,0,-0.0052,0.0049,0.0318,0.0378,0.0459,0.0707,0.0767,0.0884,0.1026,0.1046,0.123,0.1222,0.138,0.1356,0.1421,0.1331,0.1403,0.1357,0.1353,0.1281,0.126,0.164,0.1651,0.1559,0.156,0.1561,0.1562,0,0.0001,0.0267,0.0386,0.0477,0.0738,0.0808,0.0915,0.1058,0.1112,0.1232,0.1268,0.1361,0.1412,0.1451,0.1513,0.1582,0.1475,0.1598,0.1428,0.1415,0.1313,0.1292,0.1564,0.1564,0.1564,0.1565,0.1565,0,0.0183,0.0319,0.0479,0.0713,0.0773,0.0852,0.099,0.1079,0.1185,0.1264,0.1348,0.1438,0.1514,0.1585,0.1624,0.165,0.1669,0.1695,0.1692,0.1543,0.1587,0.1325,0.1203,0.165,0.1652,0.1653,0.1654,0,0.0214,0.0393,0.0541,0.0685,0.0806,0.0966,0.1041,0.1149,0.1246,0.1311,0.1415,0.1521,0.161,0.1691,0.171,0.1789,0.1764,0.1822,0.1781,0.1778,0.1595,0.1513,0.1399,0.1238,0.1671,0.1669,0.1668,0,0.0224,0.052,0.0538,0.0641,0.0868,0.0944,0.1042,0.1165,0.1214,0.1343,0.1399,0.1572,0.164,0.1711,0.1815,0.1832,0.1791,0.1867,0.1869,0.1764,0.1729,0.1557,0.1529,0.1838,0.1837,0.1836,0.1682,0,0.0384,0.0505,0.0564,0.0727,0.0835,0.0948,0.109,0.1167,0.1268,0.1358,0.1469,0.161,0.1739,0.1792,0.187,0.1905,0.1881,0.1938,0.1937,0.1934,0.1869,0.1858,0.2003,0.2004,0.2005,0.2006,0,0,0.0364,0.0473,0.0605,0.0713,0.0821,0.0969,0.1063,0.1158,0.1355,0.1404,0.1452,0.1668,0.1772,0.1867,0.1901,0.196,0.1931,0.1946,0.1957,0.1951,0.1946,0.1882,0.1871,0.2008,0.2008,0.2008,0.2009,0,0.0399,0.0508,0.0567,0.0688,0.0883,0.0987,0.102,0.1229,0.1313,0.1431,0.1532,0.1631,0.1776,0.186,0.1919,0.1966,0.1955,0.2,0.196,0.1965,0.1958,0.1952,0.1888,0.1877,0.2011,0.2011,0.2011,0,0.0417,0.0534,0.0571,0.0754,0.0895,0.1,0.1109,0.1254,0.1324,0.1446,0.1571,0.166,0.1772,0.1862,0.1906,0.1917,0.1967,0.2,0.1998,0.1969,0.1972,0.1966,0.196,0.2025,0.2025,0.2024,0,0,0.0448,0.0517,0.0701,0.0774,0.0853,0.1047,0.1143,0.1245,0.1388,0.1455,0.1556,0.1666,0.1752,0.1807,0.1887,0.1967,0.195,0.1997,0.1996,0.1995,0.1965,0.1969,0.1964,0.2022,0.2022,0.2022,0,0,0.0466,0.065,0.0708,0.0804,0.0943,0.1157,0.1245,0.1338,0.1475,0.1501,0.1606,0.1633,0.1718,0.1781,0.1747,0.189,0.19,0.1909,0.1837,0.1837,0.1837,0.1777,0.1788,0,0,0,0,0,0.0578,0.0617,0.0667,0.0707,0.0961,0.112,0.1163,0.133,0.1392,0.1437,0.1551,0.1582,0.1793,0.1765,0.1787,0.1806,0.1998,0.2003,0.2007,0.1933,0.1932,0.1932,0,0,0,0,0,0,0.0594,0.0636,0.0668,0.087,0.0932,0.1119,0.1209,0.1257,0.139,0.1408,0.1565,0.1585,0.1651,0.1757,0.1777,0.1793,0.1782,0.2,0.2004,0.2007,0.1933,0.1932,0.1932,0,0,0,0,0,0.0608,0.0642,0.0991,0.0875,0.0928,0.1159,0.1209,0.1249,0.1364,0.1492,0.1521,0.1485,0.1649,0.1671,0.1769,0.1782,0.1769,0.1776,0.2002,0.2005,0.2008,0.1932,0,0,0,0,0,0,0.0619,0.0695,0.1008,0.1034,0.0867,0.1154,0.1197,0.1241,0.1441,0.1475,0.141,0.142,0.1648,0.1665,0.1682,0.1775,0.1758,0.1765,0.177,0.2005,0.2007,0.2009,0,0,0,0,0,0,0.0679,0.0714,0.1021,0.1001,0.1027,0.1149,0.1186,0.1255,0.1437,0.1346,0.1363,0.1411,0.158,0.1661,0.1674,0.1781,0.175,0.1757,0.1762,0.1765,0.2006,0.2008,0,0,0,0,0,0,0.0699,0.073,0.0996,0.1015,0.1037,0.134,0.121,0.1435,0.1506,0.1331,0.1508,0.1509,0.157,0.1589,0.1669,0.1769,0.1778,0.175,0.1755,0.1758,0.1761,0,0,0,0,0,0,0,0.0715,0.0447,0.0855,0.1026,0.1046,0.1273,0.128,0.1287,0.1506,0.1507,0.1508,0.1508,0.1711,0.1719,0.1726,0.176,0,0,0.175,0.1753,0,0,0,0,0,0,0,0,0.0441,0.0446,0.0856,0.0861,0.0866,0.1274,0.128,0.1285,0.1506,0.1507,0.1507,0.1508,0.1713,0.1719,0.1726,0,0,0,0,0,0,0,0,0,0,0,0,0,0,0,0.0856,0.0861,0,0.1275,0.1279,0.1284,0.1506,0.1507,0.1507,0.1508,0.1715,0.172,0.1725,0,0,0,0,0,0,0,0,0,0,0,0,0,0,0,0,0,0,0,0,0,0,0,0,0,0,0,0,0,0,0,0,0,0,0,0,0,0,0,0,0,0,0,0,0,0,0,0,0,0,0,0,0,0,0,0,0,0,0,0,0,0,0,0,0,0,0,0,0]}]],[[{"header":{"parameterUnit":"kt","parameterCategory":2,"dx":1,"dy":1,"la1":30.253999710083008,"la2":30.299108505249023,"lo1":-89.0895004272461,"lo2":-89.04439544677734,"nx":28,"ny":28,"refTime":"2022-09-20T15:00:00:Z","depth":"4","parameterNumber":2,"parameterNumberName":"U-component_of_CURRENTS"},"data":[-0.0438,-0.0429,-0.0416,-0.0359,-0.0324,-0.0328,-0.0353,-0.04,-0.0389,-0.0444,-0.0409,-0.044,-0.0385,-0.0429,-0.0328,-0.0326,-0.0417,-0.0341,-0.0339,-0.0537,-0.0553,-0.0568,-0.0531,0,0,0,0,0,-0.0474,-0.0445,-0.0438,-0.0401,-0.0414,-0.0407,-0.0468,-0.0517,-0.0578,-0.0526,-0.0551,-0.0499,-0.0427,-0.0423,-0.0356,-0.0424,-0.0477,-0.0344,-0.0512,-0.0547,-0.0565,-0.0524,0,0,0,0,0,0,-0.0494,-0.0484,-0.0468,-0.0459,-0.0467,-0.0462,-0.0499,-0.0523,-0.0551,-0.0599,-0.0578,-0.0552,-0.0569,-0.0499,-0.0499,-0.0467,-0.0469,-0.0488,-0.0508,-0.0526,-0.0481,-0.0386,-0.0274,0,0,0,0,0,-0.0505,-0.0507,-0.0507,-0.0494,-0.0508,-0.053,-0.0569,-0.0586,-0.0648,-0.0697,-0.0658,-0.0621,-0.0581,-0.0575,-0.055,-0.0571,-0.0715,-0.0662,-0.0672,-0.0704,-0.0647,-0.0668,-0.0678,-0.0633,-0.0636,-0.0637,-0.0638,0,-0.0513,-0.0514,-0.0525,-0.0524,-0.0543,-0.0573,-0.0591,-0.0652,-0.0681,-0.0714,-0.0721,-0.0711,-0.0709,-0.0663,-0.0712,-0.0709,-0.0709,-0.0708,-0.0742,-0.0676,-0.0692,-0.0697,-0.0702,-0.0652,-0.0651,-0.065,-0.0649,0,-0.0517,-0.0535,-0.0547,-0.0576,-0.0582,-0.0592,-0.0651,-0.0669,-0.0706,-0.0728,-0.0743,-0.0768,-0.0765,-0.0799,-0.0861,-0.0841,-0.0851,-0.0817,-0.0922,-0.0943,-0.0728,-0.0727,-0.0676,-0.0671,-0.0666,-0.0663,-0.066,0,-0.0543,-0.0559,-0.0591,-0.0594,-0.0601,-0.0636,-0.0654,-0.0668,-0.0709,-0.0725,-0.0754,-0.0766,-0.0843,-0.0865,-0.0895,-0.0865,-0.0956,-0.0845,-0.0854,-0.1006,-0.1004,-0.1016,-0.1015,-0.103,-0.103,-0.103,-0.103,0,-0.0565,-0.0599,-0.0605,-0.0614,-0.0645,-0.0653,-0.0673,-0.069,-0.0711,-0.0739,-0.0757,-0.0794,-0.0827,-0.0873,-0.0901,-0.0918,-0.096,-0.1006,-0.0881,-0.0871,-0.1016,-0.1015,-0.103,-0.103,-0.103,-0.103,-0.1031,0,-0.0601,-0.0618,-0.0626,-0.0656,-0.0659,-0.0673,-0.0682,-0.07,-0.0722,-0.0742,-0.0763,-0.0789,-0.0821,-0.084,-0.0899,-0.0897,-0.0916,-0.0949,-0.0951,-0.0819,-0.0839,-0.0933,-0.0963,-0.0962,-0.0962,-0.0962,-0.0962,0,-0.0604,-0.0626,-0.0655,-0.0668,-0.067,-0.0688,-0.07,-0.0714,-0.073,-0.0751,-0.0781,-0.0815,-0.0819,-0.0839,-0.0865,-0.0916,-0.0923,-0.0912,-0.0979,-0.0979,-0.0829,-0.0823,-0.0977,-0.0957,-0.0958,-0.0958,-0.0959,0,-0.0608,-0.0653,-0.0655,-0.0662,-0.0684,-0.0693,-0.0707,-0.0716,-0.072,-0.0759,-0.077,-0.0813,-0.0824,-0.0841,-0.0865,-0.0896,-0.0914,-0.0917,-0.092,-0.0881,-0.098,-0.0836,-0.0824,-0.0973,-0.0973,-0.0974,-0.0956,0,-0.0617,-0.0639,-0.065,-0.0674,-0.0684,-0.0692,-0.0706,-0.0721,-0.0734,-0.0746,-0.0782,-0.0816,-0.0845,-0.0871,-0.0871,-0.0907,-0.0903,-0.0941,-0.0925,-0.0953,-0.0942,-0.0944,-0.0922,-0.0923,-0.0923,-0.0923,0,0,-0.0599,-0.0631,-0.0657,-0.0671,-0.0673,-0.0683,-0.0686,-0.0703,-0.0728,-0.0733,-0.0745,-0.0808,-0.0829,-0.0857,-0.0866,-0.0896,-0.0908,-0.0877,-0.0947,-0.0949,-0.0952,-0.0942,-0.0943,-0.0923,-0.0923,-0.0923,-0.0923,0,-0.0604,-0.0632,-0.0653,-0.0662,-0.0674,-0.0681,-0.0682,-0.0699,-0.0709,-0.0736,-0.0748,-0.0773,-0.0823,-0.0839,-0.0855,-0.0895,-0.09,-0.0922,-0.09,-0.0948,-0.095,-0.0952,-0.0942,-0.0944,-0.0924,-0.0924,-0.0924,0,-0.0591,-0.0614,-0.0629,-0.0657,-0.0663,-0.067,-0.0669,-0.0682,-0.069,-0.0701,-0.0728,-0.0752,-0.0782,-0.0819,-0.0837,-0.0833,-0.0886,-0.088,-0.0881,-0.0856,-0.0904,-0.0907,-0.091,-0.0868,-0.0867,-0.0867,0,0,-0.0589,-0.0622,-0.0632,-0.0655,-0.0658,-0.0665,-0.0672,-0.0675,-0.069,-0.0698,-0.0716,-0.0744,-0.077,-0.0784,-0.0813,-0.0847,-0.085,-0.087,-0.0873,-0.0875,-0.0852,-0.0899,-0.0903,-0.0865,-0.0865,-0.0865,0,0,-0.0583,-0.0613,-0.0615,-0.0645,-0.0651,-0.0664,-0.0673,-0.0675,-0.0694,-0.0695,-0.0707,-0.0712,-0.0745,-0.0764,-0.0737,-0.0811,-0.0805,-0.0811,-0.0784,-0.0787,-0.079,-0.0751,-0.0735,0,0,0,0,0,-0.0586,-0.061,-0.0611,-0.0617,-0.065,-0.0665,-0.0668,-0.0673,-0.0669,-0.0678,-0.0693,-0.0694,-0.0759,-0.0736,-0.0742,-0.076,-0.0841,-0.0845,-0.0849,-0.0823,-0.0827,-0.083,0,0,0,0,0,0,-0.0589,-0.0596,-0.061,-0.0625,-0.0632,-0.0664,-0.0659,-0.0662,-0.0668,-0.0668,-0.0692,-0.0695,-0.0704,-0.0733,-0.0739,-0.0756,-0.0733,-0.0843,-0.0846,-0.085,-0.0825,-0.0828,-0.083,0,0,0,0,0,-0.059,-0.0596,-0.0651,-0.0624,-0.0631,-0.0639,-0.0659,-0.0661,-0.067,-0.0685,-0.0688,-0.0671,-0.0704,-0.071,-0.0736,-0.0753,-0.0729,-0.0732,-0.0845,-0.0848,-0.085,-0.0826,0,0,0,0,0,0,-0.0591,-0.0603,-0.0652,-0.0653,-0.0616,-0.0638,-0.0642,-0.066,-0.0687,-0.0689,-0.0665,-0.0664,-0.0705,-0.0709,-0.0713,-0.0752,-0.0726,-0.0728,-0.073,-0.0847,-0.0849,-0.0851,0,0,0,0,0,0,-0.0599,-0.0604,-0.0653,-0.0643,-0.0643,-0.0636,-0.064,-0.0664,-0.0687,-0.0666,-0.0666,-0.0664,-0.0697,-0.0708,-0.0712,-0.0749,-0.0724,-0.0726,-0.0727,-0.0728,-0.0849,-0.0851,0,0,0,0,0,0,-0.0601,-0.0606,-0.0643,-0.0643,-0.0643,-0.0663,-0.0657,-0.0693,-0.0674,-0.0666,-0.0672,-0.0671,-0.0696,-0.07,-0.0711,-0.0747,-0.0749,-0.0724,-0.0725,-0.0726,-0.0727,0,0,0,0,0,0,0,-0.0603,-0.0573,-0.0639,-0.0643,-0.0644,-0.0666,-0.0666,-0.0667,-0.0674,-0.0673,-0.0672,-0.0672,-0.0712,-0.0714,-0.0717,-0.0745,0,0,-0.0724,-0.0725,0,0,0,0,0,0,0,0,-0.0571,-0.0573,-0.0639,-0.0639,-0.0639,-0.0666,-0.0666,-0.0667,-0.0673,-0.0673,-0.0672,-0.0672,-0.0713,-0.0715,-0.0716,0,0,0,0,0,0,0,0,0,0,0,0,0,0,0,-0.0639,-0.0639,0,-0.0666,-0.0666,-0.0667,-0.0673,-0.0673,-0.0672,-0.0672,-0.0713,-0.0715,-0.0716,0,0,0,0,0,0,0,0,0,0,0,0,0,0,0,0,0,0,0,0,0,0,0,0,0,0,0,0,0,0,0,0,0,0,0,0,0,0,0,0,0,0,0,0,0,0,0,0,0,0,0,0,0,0,0,0,0,0,0,0,0,0,0,0,0,0,0,0,0]}],[{"header":{"parameterUnit":"kt","parameterCategory":2,"dx":1,"dy":1,"la1":30.253999710083008,"la2":30.299108505249023,"lo1":-89.0895004272461,"lo2":-89.04439544677734,"nx":28,"ny":28,"refTime":"2022-09-20T15:00:00:Z","depth":"4","parameterNumber":3,"parameterNumberName":"V-component_of_CURRENTS"},"data":[-0.0921,-0.096,-0.0973,-0.0996,-0.1021,-0.1057,-0.1069,-0.1085,-0.1037,-0.1048,-0.0964,-0.0955,-0.0815,-0.091,-0.0683,-0.0661,-0.0586,-0.0538,-0.0534,-0.0437,-0.0439,-0.0441,-0.0563,0,0,0,0,0,-0.0921,-0.0931,-0.0987,-0.1043,-0.1084,-0.1113,-0.114,-0.1157,-0.1173,-0.1092,-0.1103,-0.0997,-0.0851,-0.0821,-0.0689,-0.0741,-0.0575,-0.0587,-0.0504,-0.0438,-0.044,-0.0559,0,0,0,0,0,0,-0.0913,-0.0946,-0.1004,-0.1059,-0.1114,-0.1125,-0.1167,-0.1141,-0.1154,-0.1152,-0.1125,-0.1054,-0.1032,-0.0881,-0.0754,-0.0638,-0.0576,-0.0513,-0.0511,-0.0512,-0.0615,-0.0641,-0.0537,0,0,0,0,0,-0.0893,-0.0931,-0.0988,-0.106,-0.1112,-0.1164,-0.1205,-0.1209,-0.1224,-0.1262,-0.119,-0.1116,-0.1023,-0.0897,-0.0775,-0.0615,-0.0593,-0.0526,-0.0525,-0.0537,-0.0546,-0.0523,-0.0532,-0.0448,-0.0449,-0.0449,-0.0449,0,-0.0857,-0.0899,-0.1007,-0.1046,-0.1086,-0.1166,-0.1193,-0.1242,-0.1243,-0.1265,-0.1249,-0.1202,-0.1162,-0.0937,-0.0858,-0.0641,-0.0615,-0.0533,-0.0548,-0.0551,-0.0525,-0.0534,-0.0543,-0.0451,-0.0451,-0.045,-0.045,0,-0.0829,-0.0866,-0.0952,-0.1034,-0.1067,-0.1129,-0.1198,-0.1224,-0.1253,-0.1266,-0.1265,-0.1248,-0.1142,-0.1054,-0.0886,-0.0805,-0.0663,-0.0606,-0.067,-0.0641,-0.0541,-0.0549,-0.0454,-0.0453,-0.0452,-0.0452,-0.0452,0,-0.0794,-0.0855,-0.091,-0.0954,-0.1043,-0.1071,-0.1153,-0.1181,-0.1205,-0.1226,-0.1221,-0.1218,-0.1137,-0.1063,-0.0933,-0.0792,-0.0787,-0.0676,-0.064,-0.0705,-0.0712,-0.0671,-0.0674,-0.0659,-0.0661,-0.0662,-0.0663,0,-0.0748,-0.0809,-0.088,-0.0905,-0.0971,-0.1017,-0.1058,-0.1102,-0.1131,-0.1158,-0.1168,-0.1161,-0.1152,-0.1042,-0.0933,-0.0922,-0.0793,-0.0765,-0.0675,-0.0671,-0.068,-0.068,-0.0665,-0.0665,-0.0665,-0.0666,-0.0666,0,-0.0702,-0.073,-0.0809,-0.0877,-0.09,-0.0947,-0.1025,-0.1059,-0.1092,-0.1103,-0.1126,-0.112,-0.1111,-0.1073,-0.0969,-0.0997,-0.0892,-0.0831,-0.0823,-0.0813,-0.0775,-0.0687,-0.0696,-0.0697,-0.0699,-0.07,-0.0701,0,-0.0659,-0.0713,-0.0714,-0.0793,-0.0835,-0.085,-0.0893,-0.0934,-0.0958,-0.1,-0.1012,-0.1054,-0.1032,-0.1041,-0.1013,-0.0957,-0.0901,-0.0963,-0.078,-0.0774,-0.078,-0.0792,-0.0897,-0.0717,-0.0715,-0.0714,-0.0713,0,-0.0618,-0.0641,-0.0649,-0.0687,-0.0717,-0.0753,-0.079,-0.0846,-0.0881,-0.091,-0.0958,-0.1003,-0.0999,-0.1008,-0.1002,-0.0971,-0.0919,-0.0909,-0.0906,-0.0829,-0.0793,-0.0807,-0.0798,-0.0899,-0.0898,-0.0898,-0.0724,0,-0.0607,-0.0618,-0.0626,-0.0652,-0.0678,-0.071,-0.0733,-0.0763,-0.0779,-0.0804,-0.0863,-0.0875,-0.0909,-0.0923,-0.0907,-0.0929,-0.0872,-0.087,-0.0827,-0.0857,-0.0774,-0.0765,-0.0851,-0.085,-0.0849,-0.0848,0,0,-0.058,-0.0585,-0.0569,-0.059,-0.0615,-0.0617,-0.0659,-0.0677,-0.0711,-0.0736,-0.0723,-0.0792,-0.08,-0.0853,-0.0868,-0.0869,-0.081,-0.0847,-0.085,-0.085,-0.085,-0.0773,-0.0766,-0.0847,-0.0846,-0.0846,-0.0846,0,-0.057,-0.0556,-0.0558,-0.0577,-0.0592,-0.0608,-0.0615,-0.0643,-0.0664,-0.0701,-0.0708,-0.074,-0.0765,-0.079,-0.0799,-0.085,-0.079,-0.0852,-0.0876,-0.0843,-0.0844,-0.0846,-0.0771,-0.0765,-0.0843,-0.0844,-0.0844,0,-0.0562,-0.0548,-0.0542,-0.0547,-0.0564,-0.0595,-0.0582,-0.0602,-0.0632,-0.0617,-0.0669,-0.0682,-0.0689,-0.073,-0.0745,-0.0722,-0.0745,-0.0767,-0.0771,-0.0771,-0.0734,-0.0737,-0.0739,-0.0704,-0.0703,-0.0703,0,0,-0.0558,-0.0543,-0.055,-0.0546,-0.0556,-0.0573,-0.0584,-0.0594,-0.0609,-0.0621,-0.0638,-0.0651,-0.0676,-0.0681,-0.0704,-0.0726,-0.0683,-0.0751,-0.0758,-0.0763,-0.0766,-0.0731,-0.0734,-0.0702,-0.0702,-0.0702,0,0,-0.056,-0.0541,-0.0543,-0.0534,-0.0555,-0.0569,-0.0583,-0.059,-0.0616,-0.0616,-0.0619,-0.0622,-0.0663,-0.0652,-0.0636,-0.0698,-0.0669,-0.0672,-0.071,-0.0717,-0.0724,-0.0725,-0.0628,0,0,0,0,0,-0.0545,-0.0539,-0.054,-0.0537,-0.0544,-0.0566,-0.0571,-0.0585,-0.0582,-0.0605,-0.0613,-0.0608,-0.0649,-0.0635,-0.0638,-0.0674,-0.0687,-0.069,-0.0692,-0.0747,-0.0755,-0.0763,0,0,0,0,0,0,-0.0544,-0.0541,-0.054,-0.0548,-0.0549,-0.0565,-0.0559,-0.0565,-0.0581,-0.0583,-0.0606,-0.0608,-0.0612,-0.0634,-0.0636,-0.067,-0.0627,-0.0688,-0.069,-0.0692,-0.075,-0.0757,-0.0763,0,0,0,0,0,-0.0543,-0.0541,-0.0541,-0.0549,-0.055,-0.0565,-0.056,-0.0564,-0.0588,-0.0589,-0.0593,-0.0596,-0.0612,-0.0614,-0.0635,-0.067,-0.0625,-0.0626,-0.069,-0.0691,-0.0693,-0.0753,0,0,0,0,0,0,-0.0543,-0.0563,-0.0543,-0.0544,-0.0545,-0.0567,-0.0569,-0.0564,-0.0594,-0.0597,-0.0578,-0.0579,-0.0612,-0.0614,-0.0616,-0.067,-0.0624,-0.0625,-0.0625,-0.0691,-0.0692,-0.0694,0,0,0,0,0,0,-0.0563,-0.0564,-0.0544,-0.0537,-0.0539,-0.0568,-0.057,-0.058,-0.0594,-0.0583,-0.0584,-0.0577,-0.0597,-0.0613,-0.0615,-0.0632,-0.0622,-0.0623,-0.0624,-0.0624,-0.0692,-0.0693,0,0,0,0,0,0,-0.0564,-0.0565,-0.0538,-0.0539,-0.054,-0.0567,-0.0578,-0.0581,-0.0595,-0.0581,-0.0595,-0.0594,-0.0595,-0.0598,-0.0614,-0.0631,-0.0632,-0.0622,-0.0623,-0.0624,-0.0624,0,0,0,0,0,0,0,-0.0565,-0.0552,-0.0523,-0.054,-0.0541,-0.0558,-0.056,-0.0561,-0.0595,-0.0595,-0.0595,-0.0595,-0.0617,-0.0618,-0.0619,-0.063,0,0,-0.0622,-0.0623,0,0,0,0,0,0,0,0,-0.0553,-0.0552,-0.0523,-0.0523,-0.0523,-0.0558,-0.056,-0.0561,-0.0595,-0.0595,-0.0595,-0.0595,-0.0617,-0.0618,-0.0619,0,0,0,0,0,0,0,0,0,0,0,0,0,0,0,-0.0523,-0.0523,0,-0.0559,-0.056,-0.056,-0.0595,-0.0595,-0.0595,-0.0595,-0.0617,-0.0618,-0.0619,0,0,0,0,0,0,0,0,0,0,0,0,0,0,0,0,0,0,0,0,0,0,0,0,0,0,0,0,0,0,0,0,0,0,0,0,0,0,0,0,0,0,0,0,0,0,0,0,0,0,0,0,0,0,0,0,0,0,0,0,0,0,0,0,0,0,0,0,0]}]]]